Weather in Nolinsk

Russia / Kirov Oblast     57°33′34″N   49°56′08″E
temp.,
°C
wind,
m/s
gust,
m/s
humid.,
%
clouds,
%
prec.,
mm/h
press.,
hPa
HPBL,
m
25 february, thu
thu2500:00−25w119780 0.0 103420
03:00−26ssw129954 0.0 103319
06:00−27s229977 0.0 103020
09:00−23sse369688 0.0 1028235
12:00−19sse5991100 0.0 1025347
15:00−18sse51094100 0.1 1022427
18:00−18sse51195100 0.4 1021518
21:00−19se41095100 0.6 1020453
26 february, fri
fri2600:00−20se3996100 0.1 1019357
03:00−21se3997100 0.1 1020297
06:00−21se3997100 0.0 1018323
09:00−20se4895100 0.1 1019391
12:00−16se4891100 0.0 1017531
15:00−15sse51090100 0.1 1015623
18:00−16se61392100 0.1 1012612
21:00−16se71491100 0.1 1008579
27 february, sat
sat2700:00−16se61395100 1.4 1004595
03:00−16se61195100 3.5 1003609
06:00−16ese51094100 1.0 1001534
09:00−14e5992100 1.5 1001513
12:00−12e5890100 0.2 1001535
15:00−11ene4790100 0.4 1003600
18:00−12ene499499 0.1 1004382
21:00−13ne499496 0.3 1005359
28 february, sun
sun2800:00−14ne499499 0.1 1005323
03:00−15ne4994100 0.2 1007345
06:00−16ne4994100 0.1 1008336
09:00−18nne589398 0.1 1010285
12:00−16nne479167 0.0 1011356
15:00−15nne589076 0.0 1012464
18:00−18n389592 0.0 1014169
21:00−20nne379780 0.0 1017122
1 march, mon
mon100:00−22n33970 0.0 101866
03:00−23n34970 0.0 102073
06:00−23n33970 0.0 102158
09:00−18n24930 0.0 1022172
12:00−13nw228437 0.0 1022314
15:00−11w358943 0.0 1020379
18:00−15wsw389383 0.0 1018210
21:00−13sw5119489 0.0 1016297